Manchester, NH

8:29 PM EST on December 06, 2019 (GMT -0500)
Manchester

Weather History for KMHT - November, 2019

Change the Weather History Date:

Wednesday, November 20, 2019

  Actual Average Record
Temperature  
Mean Temperature 38 °F 40 °F  
Max Temperature 40 °F 48 °F 73 °F (1953)
Min Temperature 36 °F 32 °F 18 °F (1947)
Degree Days  
Heating Degree Days 27 25  
Month to date heating degree days 560 438  
Since 1 July heating degree days 978 1025  
Cooling Degree Days 0 0  
Month to date cooling degree days 0 0  
Year to date cooling degree days 844 642  
Moisture  
Dew Point 35 °F    
Average Humidity 90    
Maximum Humidity 100    
Minimum Humidity 82    
Precipitation  
Precipitation T in 0.12 in 1.49 in (1945)
Month to date precipitation 0.30 2.85  
Year to date precipitation 26.66 40.08  
Snow  
Snow 0.00 in - - ()
Month to date snowfall T  
Since 1 July snowfall T  
Snow Depth 0.00 in    
Sea Level Pressure  
Sea Level Pressure 29.93 in    
Wind  
Wind Speed 5 mph ()    
Max Wind Speed 13 mph    
Max Gust Speed 16 mph    
Visibility 7.8 miles    
Events Rain    
T = Trace of Precipitation, MM = Missing Value Source: Averaged Metar Reports

Daily Weather History Graph

Daily Weather History Graph

Search for Another Location

Airport or City:

Astronomy

Nov. 20, 2019 Rise Set
Actual Time 6:43 AM EST 4:18 PM EST
Civil Twilight 6:12 AM EST 4:49 PM EST
Nautical Twilight 5:38 AM EST 5:23 PM EST
Astronomical Twilight 5:04 AM EST 5:57 PM EST
Moon No Moon Rise 1:24 PM EST (11/20)
Length of Visible Light 10h 36m
Length of Day
9h 34m
Last Quarter, 41% of the Moon is Illuminated
Nov 20
Last Quarter
Nov 26
New
Dec 4
First Quarter
Dec 12
Full
Dec 18
Last Quarter

Hourly Weather History & Observations

Time (EST) Temp. Windchill Dew Point Humidity Pressure Visibility Wind Dir Wind Speed Gust Speed Precip Events Conditions
12:53 AM 37.9 °F 34.4 °F 36.0 °F 93% 29.87 in 10.0 mi North 4.6 mph - N/A   Overcast
1:53 AM 37.9 °F - 37.0 °F 97% 29.90 in 10.0 mi Calm Calm - N/A   Overcast
2:53 AM 39.0 °F 36.8 °F 37.0 °F 93% 29.89 in 10.0 mi NNW 3.5 mph - N/A   Overcast
3:53 AM 39.0 °F 35.7 °F 37.0 °F 93% 29.90 in 10.0 mi NNW 4.6 mph - N/A   Overcast
4:53 AM 39.0 °F 33.4 °F 36.0 °F 89% 29.90 in 10.0 mi North 8.1 mph - N/A   Overcast
5:16 AM 39.0 °F 34.0 °F 36.0 °F 89% 29.85 in 10.0 mi North 6.9 mph - N/A   Overcast
5:34 AM 39.0 °F 34.8 °F 36.0 °F 89% 29.86 in 10.0 mi NNE 5.8 mph - N/A   Overcast
5:53 AM 37.9 °F 34.4 °F 36.0 °F 93% 29.92 in 5.0 mi NE 4.6 mph - 0.00 in   Light Drizzle
6:53 AM 37.9 °F - 37.0 °F 97% 29.93 in 1.5 mi Calm Calm - N/A   Light Drizzle
7:27 AM 37.9 °F 33.5 °F 36.0 °F 93% 29.89 in 2.0 mi NE 5.8 mph - 0.00 in   Light Drizzle
7:32 AM 37.9 °F 33.5 °F 36.0 °F 93% 29.89 in 2.0 mi NNE 5.8 mph - 0.00 in   Light Drizzle
7:40 AM 37.9 °F 32.7 °F 35.1 °F 89% 29.89 in 2.0 mi NNE 6.9 mph - 0.00 in   Light Drizzle
7:53 AM 37.9 °F 33.5 °F 36.0 °F 93% 29.94 in 2.0 mi NNE 5.8 mph - 0.00 in   Light Drizzle
7:55 AM 37.9 °F 34.4 °F 36.0 °F 93% 29.89 in 1.8 mi NNE 4.6 mph - 0.00 in   Light Drizzle
8:12 AM 37.9 °F 32.7 °F 36.0 °F 93% 29.88 in 2.0 mi North 6.9 mph - 0.00 in   Light Drizzle
8:45 AM 37.9 °F 34.4 °F 36.0 °F 93% 29.90 in 2.0 mi NNE 4.6 mph - 0.00 in Rain Light Rain
8:53 AM 37.9 °F 34.4 °F 36.0 °F 93% 29.95 in 2.0 mi ENE 4.6 mph - 0.00 in Rain Light Rain
9:43 AM 39.0 °F - 37.0 °F 93% 29.90 in 6.0 mi Calm Calm - 0.00 in   Overcast
9:53 AM 39.0 °F - 36.0 °F 89% 29.95 in 6.0 mi Calm Calm - 0.00 in   Overcast
10:18 AM 39.0 °F - 37.0 °F 93% 29.90 in 5.0 mi Calm Calm - 0.00 in Rain Light Rain
10:49 AM 39.2 °F 35.0 °F 35.6 °F 87% 29.90 in 10.0 mi North 5.8 mph - 0.00 in Rain Light Rain
10:53 AM 39.9 °F 35.8 °F 36.0 °F 86% 29.95 in 10.0 mi North 5.8 mph - 0.00 in Rain Light Rain
11:19 AM 39.9 °F 35.8 °F 36.0 °F 86% 29.89 in 10.0 mi North 5.8 mph - 0.00 in Rain Light Rain
11:28 AM 39.9 °F 35.8 °F 36.0 °F 86% 29.89 in 10.0 mi NNW 5.8 mph - 0.00 in Rain Light Rain
11:53 AM 39.0 °F 33.4 °F 36.0 °F 89% 29.94 in 9.0 mi NW 8.1 mph - 0.00 in Rain Light Rain
12:13 PM 39.0 °F 34.8 °F 36.0 °F 89% 29.89 in 10.0 mi NW 5.8 mph - 0.00 in Rain Light Rain
12:50 PM 39.2 °F 33.6 °F 35.6 °F 87% 29.89 in 10.0 mi NNW 8.1 mph - 0.00 in Rain Light Rain
12:53 PM 39.0 °F 32.8 °F 36.0 °F 89% 29.94 in 10.0 mi NW 9.2 mph - 0.00 in Rain Light Rain
1:43 PM 39.0 °F 33.4 °F 35.1 °F 86% 29.89 in 10.0 mi NW 8.1 mph - 0.00 in Rain Light Rain
1:53 PM 39.0 °F 33.4 °F 35.1 °F 86% 29.94 in 10.0 mi NNW 8.1 mph - 0.00 in Rain Light Rain
2:53 PM 37.9 °F 32.1 °F 35.1 °F 89% 29.95 in 10.0 mi NW 8.1 mph - 0.00 in Rain Light Rain
3:53 PM 37.9 °F 32.7 °F 35.1 °F 89% 29.96 in 10.0 mi NNW 6.9 mph - 0.00 in Rain Light Rain
4:53 PM 37.9 °F 31.5 °F 34.0 °F 86% 29.98 in 10.0 mi NNW 9.2 mph - 0.00 in Rain Light Rain
5:53 PM 37.0 °F 31.0 °F 34.0 °F 89% 30.00 in 10.0 mi NW 8.1 mph - 0.00 in   Overcast
6:19 PM 37.0 °F 31.6 °F 34.0 °F 89% 29.96 in 10.0 mi NW 6.9 mph - 0.00 in Rain Light Rain
6:53 PM 37.0 °F 30.4 °F 34.0 °F 89% 30.02 in 10.0 mi NNW 9.2 mph - 0.00 in   Overcast
7:53 PM 37.0 °F 31.6 °F 34.0 °F 89% 30.03 in 10.0 mi NNW 6.9 mph - N/A   Overcast
8:53 PM 37.0 °F 31.0 °F 33.1 °F 86% 30.04 in 10.0 mi NW 8.1 mph - N/A   Overcast
9:53 PM 37.0 °F 33.3 °F 33.1 °F 86% 30.05 in 10.0 mi NW 4.6 mph - N/A   Overcast
10:53 PM 37.0 °F 32.4 °F 33.1 °F 86% 30.06 in 10.0 mi NNW 5.8 mph - N/A   Mostly Cloudy
11:53 PM 36.0 °F 31.1 °F 30.9 °F 82% 30.06 in 10.0 mi NW 5.8 mph - N/A   Mostly Cloudy